Back to catalog

STARLINK-4530

AliveCommunicationsVLEO
NORAD 53393·PAYLOAD·🇺🇸 United States

Launched Aug 10, 2022 from Cape Canaveral Space Force Station

Loading…

Next Passes (next 24 hours)

TLE

FreshSource: CelesTrak SupGP

Epoch: Sep 14, 2026, 22:19 UTC

1 53393C 22097F   26257.93034722 -.00035346  00000+0 -10116-2 0  2575
2 53393  53.1592 347.5266 0001177  87.6725 195.4153 15.35405206    14

Track STARLINK-4530 in real time with AllMySat

Download on the App Store